Location: Moscow
(55.7500°N, 37.5830°E)
Time: 10:29:32
(UTC+03:00)

Vanguard 3 - Pass Details

Date: 09 December 2021
Orbit: 508 x 3260 km, 33.3° (Epoch: 19 January)

Event Time Altitude Azimuth Distance (km) Brightness Sun altitude
Rises 03:20:51 0° 227° (SW) 6,707 - -43.6°
Reaches altitude 10° 03:25:50 10° 219° (SW) 5,936 - -42.9°
Exits shadow 03:36:51 29° 186° (S) 4,747 10.7 -41.5°
Maximum altitude 03:41:17 32° 166° (SSE) 4,592 10.7 -40.9°
Drops below altitude 10° 03:55:59 10° 113° (ESE) 5,670 11.9 -39.0°
Sets 04:00:34 0° 104° (ESE) 6,382 12.4 -38.4°
